Location: Colorado Springs
(38.8340°N, 104.8210°W)
Time: 07:26:56
(UTC-06:00)

Envisat - Visible Passes

Search period start: 19 October 2018 00:00
Search period end: 29 October 2018 00:00
Orbit: 764 x 766 km, 98.2° (Epoch: 19 October)

Date Brightness Start Highest point End Pass type
(mag) Time Alt. Az. Time Alt. Az. Time Alt. Az.
19 Oct 3.1 19:32:53 10° SSE 19:37:46 50° ENE 19:42:41 10° N visible
19 Oct 5.5 21:13:45 10° SW 21:17:03 17° W 21:20:23 10° NW visible
20 Oct 4.1 18:57:22 10° ESE 19:01:18 23° ENE 19:05:15 10° NNE visible
20 Oct 4.2 20:35:20 10° SSW 20:40:03 39° W 20:44:49 10° NNW visible
21 Oct 2.9 19:58:10 10° SSE 20:03:15 90° E 20:08:22 10° NNW visible
22 Oct 3.4 19:21:57 10° SE 19:26:39 40° ENE 19:31:22 10° N visible
22 Oct 5.2 21:01:53 10° SW 21:05:46 22° W 21:09:41 10° NW visible
23 Oct 4.3 18:46:47 10° ESE 18:50:13 19° ENE 18:53:41 10° NNE visible
23 Oct 3.8 20:23:55 10° S 20:28:50 50° W 20:33:47 10° NNW visible
24 Oct 2.9 19:47:03 10° SSE 19:52:06 71° ENE 19:57:09 10° N visible
24 Oct 5.9 21:29:40 10° WSW 21:31:36 12° W 21:33:30 10° WNW visible
25 Oct 3.7 19:11:06 10° SE 19:15:32 32° ENE 19:20:00 10° N visible
25 Oct 4.8 20:50:12 10° SSW 20:54:31 28° W 20:58:51 10° NW visible
26 Oct 4.5 18:36:24 10° E 18:39:11 15° ENE 18:41:58 10° NNE visible
26 Oct 3.3 20:12:36 10° S 20:17:38 65° W 20:22:41 10° NNW visible
27 Oct 3.0 19:36:00 10° SSE 19:40:56 56° ENE 19:45:55 10° N visible
27 Oct 5.6 21:17:16 10° SW 21:20:17 16° W 21:23:18 10° NW visible
28 Oct 4.0 19:00:20 10° ESE 19:04:27 25° ENE 19:08:33 10° NNE visible
28 Oct 4.4 20:38:38 10° SSW 20:43:16 36° W 20:47:55 10° NNW visible
